Weather History for Perryton, TX

Change the Weather History Date:

Thursday, January 23, 2014

  Actual Average Record
Temperature  
Mean Temperature 18 °F -  
Max Temperature 30 °F 49 °F 80 °F (1967)
Min Temperature 6 °F 18 °F -6 °F (1966)
Degree Days  
Heating Degree Days 47    
Moisture  
Dew Point 2 °F    
Average Humidity 61    
Maximum Humidity 79    
Minimum Humidity 36    
Precipitation  
Precipitation 0.00 in - - ()
Sea Level Pressure  
Sea Level Pressure 30.58 in    
Wind  
Wind Speed 15 mph (North)    
Max Wind Speed 22 mph    
Max Gust Speed 31 mph    
Visibility 9 miles    
Events      
Averages and records for this station are not official NWS values.
T = Trace of Precipitation, MM = Missing Value Source: NWS Daily Summary

Daily Weather History Graph

Daily Weather History Graph

Search for Another Location

Airport:

Trip Planner

Search our weather history database for the weather conditions in past years. The results will help you decide how hot, cold, wet, or windy it might be!

Date:

Astronomy

Jan. 23, 2014 Rise Set
Actual Time 7:50 AM CST 5:59 PM CST
Civil Twilight 7:22 AM CST 6:27 PM CST
Nautical Twilight 6:51 AM CST 6:58 PM CST
Astronomical Twilight 6:20 AM CST 7:29 PM CST
Moon 12:20 AM CST (1/23) 11:39 AM CST (1/23)
Length of Visible Light 11h 04m
Length of Day
10h 09m
Waning Gibbous, 55% of the Moon is Illuminated
Jan 23
Waning Gibbous
Jan 23
Last Quarter
Jan 30
New
Feb 6
First Quarter
Feb 14
Full

Hourly Weather History & Observations

Time (CST) Temp. Windchill Dew Point Humidity Pressure Visibility Wind Dir Wind Speed Gust Speed Precip Events Conditions
12:15 AM 30.2 °F 20.2 °F 20.8 °F 68% 30.30 in 10.0 mi ENE 12.7 mph 16.1 mph N/A   Clear
12:35 AM 28.4 °F 15.1 °F 17.4 °F 63% 30.30 in 10.0 mi NE 20.7 mph 31.1 mph N/A   Clear
12:55 AM 25.3 °F 11.8 °F 15.8 °F 67% 30.31 in 10.0 mi NE 18.4 mph 27.6 mph N/A   Clear
1:15 AM 24.3 °F 9.3 °F 14.4 °F 66% 30.33 in 10.0 mi NE 21.9 mph 25.3 mph N/A   Clear
1:35 AM 23.0 °F 8.7 °F 13.6 °F 67% 30.34 in 10.0 mi NE 18.4 mph 24.2 mph N/A   Clear
1:55 AM 21.9 °F 6.2 °F 12.2 °F 66% 30.34 in 10.0 mi NE 21.9 mph 27.6 mph N/A   Clear
2:15 AM 21.2 °F 5.2 °F 11.3 °F 66% 30.36 in 10.0 mi NE 21.9 mph 27.6 mph N/A   Clear
2:35 AM 20.1 °F 4.2 °F 10.6 °F 67% 30.37 in 10.0 mi NE 20.7 mph - N/A   Clear
2:55 AM 18.0 °F 1.7 °F 8.6 °F 67% 30.39 in 10.0 mi NE 19.6 mph 25.3 mph N/A   Clear
3:15 AM 17.2 °F 2.2 °F 7.7 °F 66% 30.40 in 10.0 mi NNE 16.1 mph 21.9 mph N/A   Mostly Cloudy
3:35 AM 16.7 °F -0.7 °F 2.1 °F 53% 30.42 in 10.0 mi NNE 21.9 mph - N/A   Overcast
3:55 AM 16.5 °F 0.8 °F 0.7 °F 50% 30.43 in 10.0 mi NE 17.3 mph 23.0 mph N/A   Overcast
4:15 AM 16.0 °F -0.4 °F -0.8 °F 48% 30.44 in 10.0 mi NNE 18.4 mph - N/A   Overcast
4:35 AM 15.8 °F -1.1 °F -0.0 °F 50% 30.44 in 10.0 mi NE 19.6 mph - N/A   Overcast
4:55 AM 15.4 °F -0.1 °F -0.4 °F 50% 30.45 in 10.0 mi NNE 16.1 mph - N/A   Overcast
5:15 AM 14.9 °F -1.8 °F -4.4 °F 42% 30.46 in 10.0 mi NE 18.4 mph 25.3 mph N/A   Overcast
5:35 AM 14.7 °F -2.0 °F -2.6 °F 46% 30.47 in 10.0 mi NE 18.4 mph - N/A   Overcast
5:55 AM 13.8 °F -2.7 °F -5.4 °F 42% 30.48 in 10.0 mi NE 17.3 mph - N/A   Overcast
6:15 AM 13.5 °F -4.6 °F -4.7 °F 44% 30.49 in 10.0 mi NE 20.7 mph - N/A   Overcast
6:35 AM 13.1 °F -2.6 °F -5.4 °F 44% 30.52 in 10.0 mi NNE 15.0 mph - N/A   Overcast
6:55 AM 12.4 °F -5.1 °F -9.8 °F 37% 30.54 in 10.0 mi NE 18.4 mph - N/A   Overcast
7:15 AM 12.0 °F -4.5 °F -7.6 °F 41% 30.56 in 10.0 mi NNE 16.1 mph - N/A   Overcast
7:35 AM 11.8 °F -6.7 °F -8.9 °F 39% 30.57 in 10.0 mi NNE 20.7 mph - N/A   Overcast
7:55 AM 11.5 °F -4.7 °F -11.0 °F 36% 30.58 in 10.0 mi NNE 15.0 mph - N/A   Overcast
8:15 AM 10.9 °F -7.9 °F -10.3 °F 38% 30.59 in 10.0 mi NNE 20.7 mph 25.3 mph N/A   Overcast
8:35 AM 10.9 °F -5.9 °F -10.5 °F 38% 30.61 in 10.0 mi NNE 16.1 mph 23.0 mph N/A   Overcast
8:55 AM 11.1 °F -5.7 °F -10.7 °F 37% 30.62 in 10.0 mi NNE 16.1 mph 23.0 mph N/A   Overcast
9:15 AM 11.1 °F -5.7 °F -8.3 °F 41% 30.65 in 10.0 mi North 16.1 mph 20.7 mph N/A   Overcast
9:35 AM 10.2 °F -6.9 °F -3.3 °F 55% 30.66 in 4.0 mi NNE 16.1 mph - N/A   Overcast
9:55 AM 9.1 °F -7.7 °F 2.3 °F 74% 30.67 in 1.2 mi North 15.0 mph 19.6 mph N/A   Overcast
10:15 AM 9.3 °F -6.8 °F 3.4 °F 77% 30.67 in 1.8 mi NNE 13.8 mph - N/A   Overcast
10:35 AM 9.1 °F -7.7 °F 3.0 °F 76% 30.69 in 1.5 mi NNE 15.0 mph - N/A   Overcast
10:55 AM 9.7 °F -7.0 °F 3.9 °F 77% 30.70 in 1.2 mi North 15.0 mph - N/A   Overcast
11:15 AM 10.2 °F -5.0 °F 4.5 °F 78% 30.71 in 1.5 mi North 12.7 mph - N/A   Overcast
11:35 AM 10.9 °F -5.4 °F 3.9 °F 73% 30.71 in 3.0 mi NNE 15.0 mph 18.4 mph N/A   Overcast
11:55 AM 11.7 °F -2.5 °F 4.3 °F 72% 30.71 in 10.0 mi NNE 11.5 mph 18.4 mph N/A   Mostly Cloudy
12:15 PM 12.4 °F -1.6 °F 4.6 °F 71% 30.71 in 10.0 mi North 11.5 mph - N/A   Scattered Clouds
12:35 PM 11.8 °F -3.6 °F 4.6 °F 73% 30.71 in 10.0 mi North 13.8 mph 19.6 mph N/A   Mostly Cloudy
12:55 PM 11.8 °F -2.3 °F 4.5 °F 72% 30.70 in 10.0 mi North 11.5 mph 18.4 mph N/A   Mostly Cloudy
1:15 PM 12.4 °F -3.5 °F 4.8 °F 72% 30.69 in 10.0 mi North 15.0 mph - N/A   Mostly Cloudy
1:35 PM 12.9 °F -2.2 °F 4.8 °F 70% 30.68 in 10.0 mi North 13.8 mph 18.4 mph N/A   Scattered Clouds
1:55 PM 13.5 °F -0.9 °F 2.5 °F 62% 30.67 in 10.0 mi North 12.7 mph 18.4 mph N/A   Scattered Clouds
2:15 PM 14.9 °F -0.8 °F 4.6 °F 64% 30.67 in 10.0 mi North 16.1 mph - N/A   Clear
2:35 PM 15.4 °F 0.4 °F 3.4 °F 59% 30.67 in 10.0 mi North 15.0 mph 19.6 mph N/A   Clear
2:55 PM 14.9 °F 0.9 °F 1.0 °F 54% 30.67 in 10.0 mi North 12.7 mph - N/A   Clear
3:15 PM 15.3 °F 2.0 °F -0.4 °F 50% 30.67 in 10.0 mi North 11.5 mph 18.4 mph N/A   Clear
3:35 PM 16.0 °F 1.7 °F -0.0 °F 49% 30.67 in 10.0 mi NNW 13.8 mph 17.3 mph N/A   Clear
3:55 PM 16.3 °F 3.4 °F 1.6 °F 52% 30.67 in 10.0 mi North 11.5 mph 17.3 mph N/A   Clear
4:15 PM 16.5 °F 3.0 °F 0.3 °F 49% 30.67 in 10.0 mi North 12.7 mph 16.1 mph N/A   Clear
4:35 PM 16.9 °F 4.1 °F -0.8 °F 46% 30.67 in 10.0 mi NNW 11.5 mph - N/A   Clear
4:55 PM 16.5 °F 4.3 °F 0.9 °F 50% 30.67 in 10.0 mi North 10.4 mph - N/A   Clear
5:15 PM 16.5 °F 6.0 °F 1.4 °F 52% 30.67 in 10.0 mi NNW 8.1 mph - N/A   Clear
5:35 PM 16.2 °F 6.5 °F 0.7 °F 51% 30.67 in 10.0 mi NNW 6.9 mph - N/A   Clear
5:55 PM 14.9 °F 5.0 °F 1.2 °F 55% 30.67 in 10.0 mi NW 6.9 mph - N/A   Clear
6:15 PM 13.1 °F 2.8 °F 2.1 °F 62% 30.67 in 10.0 mi WNW 6.9 mph - N/A   Clear
6:35 PM 11.3 °F 0.7 °F 2.7 °F 68% 30.66 in 10.0 mi WNW 6.9 mph - N/A   Clear
6:55 PM 10.4 °F -0.4 °F 3.2 °F 73% 30.66 in 10.0 mi WNW 6.9 mph - N/A   Clear
7:15 PM 10.4 °F -0.4 °F 3.2 °F 73% 30.66 in 10.0 mi WNW 6.9 mph - N/A   Scattered Clouds
7:35 PM 9.7 °F -0.1 °F 2.8 °F 74% 30.65 in 10.0 mi WNW 5.8 mph - N/A   Scattered Clouds
7:55 PM 8.4 °F -0.1 °F 2.1 °F 76% 30.65 in 10.0 mi WNW 4.6 mph - N/A   Scattered Clouds
8:15 PM 7.7 °F -2.4 °F 1.8 °F 77% 30.65 in 10.0 mi West 5.8 mph - N/A   Clear
8:35 PM 7.2 °F -4.3 °F 1.4 °F 77% 30.65 in 10.0 mi West 6.9 mph - N/A   Clear
8:55 PM 6.8 °F -4.8 °F 1.2 °F 78% 30.65 in 10.0 mi West 6.9 mph - N/A   Clear
9:15 PM 7.3 °F -5.2 °F 1.2 °F 76% 30.65 in 10.0 mi West 8.1 mph - N/A   Clear
9:55 PM 7.5 °F -3.9 °F 1.4 °F 76% 30.64 in 10.0 mi West 6.9 mph - N/A   Clear
10:15 PM 8.2 °F -1.8 °F 1.9 °F 76% 30.63 in 10.0 mi WSW 5.8 mph - N/A   Scattered Clouds
10:35 PM 8.2 °F -3.0 °F 1.4 °F 74% 30.62 in 10.0 mi WSW 6.9 mph - N/A   Clear
10:55 PM 8.4 °F -2.8 °F 1.6 °F 74% 30.62 in 10.0 mi SW 6.9 mph - N/A   Clear
11:15 PM 7.5 °F -5.0 °F 1.9 °F 78% 30.62 in 10.0 mi SW 8.1 mph - N/A   Clear
11:35 PM 7.7 °F -3.7 °F 2.5 °F 79% 30.62 in 10.0 mi SW 6.9 mph - N/A   Scattered Clouds
11:55 PM 7.7 °F -3.7 °F 2.3 °F 79% 30.61 in 10.0 mi SW 6.9 mph - N/A   Scattered Clouds